,

(GMT )
Al Udeid

Weather History for KQIR - June, 2014

Change the Weather History Date:

Wednesday, June 18, 2014

  Actual Average Record
Temperature  
Mean Temperature 92 °F -  
Max Temperature 105 °F - - ()
Min Temperature 78 °F - - ()
Cooling Degree Days 26    
Growing Degree Days 42 (Base 50)    
Moisture  
Dew Point 48 °F    
Average Humidity 27    
Maximum Humidity 63    
Minimum Humidity 8    
Precipitation  
Precipitation 0.00 in - - ()
Sea Level Pressure  
Sea Level Pressure 29.54 in    
Wind  
Wind Speed 12 mph ()    
Max Wind Speed 23 mph    
Max Gust Speed 31 mph    
Visibility 6.1 miles    
Events      
Averages and records for this station are not official NWS values.
T = Trace of Precipitation, MM = Missing Value Source: Averaged Metar Reports

Daily Weather History Graph

Daily Weather History Graph

Search for Another Location

Airport or City:

Trip Planner

Search our weather history database for the weather conditions in past years. The results will help you decide how hot, cold, wet, or windy it might be!

Date:

Astronomy

Jun. 18, 2014 Rise Set
Actual Time 4:44 AM +03 6:26 PM +03
Civil Twilight 4:18 AM +03 6:52 PM +03
Nautical Twilight 3:47 AM +03 7:23 PM +03
Astronomical Twilight 3:15 AM +03 7:56 PM +03
Moon 10:52 PM +03 (6/18) 10:09 AM +03 (6/18)
Length of Visible Light 14h 34m
Length of Day
13h 42m
Waning Gibbous, 66% of the Moon is Illuminated
Jun 18
Waning Gibbous
Jun 19
Last Quarter
Jun 27
New
Jul 5
First Quarter
Jul 12
Full

Hourly Weather History & Observations

Time (+03) Temp. Heat Index Dew Point Humidity Pressure Visibility Wind Dir Wind Speed Gust Speed Precip Events Conditions
12:58 AM 80.8 °F 80.9 °F 57.2 °F 44% 29.55 in 6.2 mi West 8.1 mph - N/A   Clear
1:58 AM 79.9 °F - 58.3 °F 48% 29.55 in 6.2 mi West 10.4 mph - N/A   Clear
2:58 AM 79.5 °F - 65.1 °F 61% 29.53 in 6.2 mi West 11.5 mph - N/A   Clear
3:58 AM 79.3 °F - 65.7 °F 63% 29.55 in 6.2 mi West 10.4 mph - N/A   Clear
4:58 AM 78.4 °F - 64.2 °F 62% 29.57 in 6.2 mi West 10.4 mph - N/A   Clear
5:58 AM 80.8 °F 81.6 °F 61.0 °F 51% 29.57 in 6.2 mi West 11.5 mph - N/A   Clear
6:58 AM 87.8 °F 87.4 °F 59.9 °F 39% 29.58 in 6.2 mi WNW 15.0 mph - N/A   Clear
7:58 AM 93.0 °F 91.4 °F 56.7 °F 29% 29.58 in 6.2 mi NW 17.3 mph - N/A   Clear
8:58 AM 98.8 °F 97.0 °F 55.2 °F 23% 29.58 in 6.2 mi NNW 18.4 mph 26.5 mph N/A   Clear
9:58 AM 101.5 °F - 51.3 °F 19% 29.58 in 6.2 mi NNW 21.9 mph - N/A   Clear
10:58 AM 104.9 °F - 36.0 °F 9% 29.57 in 5.0 mi NNW 21.9 mph 31.1 mph N/A   Haze
11:58 AM 105.6 °F - 33.6 °F 8% 29.57 in 6.2 mi NNW 20.7 mph 28.8 mph N/A   Clear
12:58 PM 105.4 °F - 33.6 °F 8% 29.55 in 6.2 mi NNW 20.7 mph - N/A   Clear
1:58 PM 104.9 °F - 38.7 °F 10% 29.53 in 6.2 mi NW 23.0 mph 26.5 mph N/A   Clear
2:58 PM 104.7 °F - 33.6 °F 9% 29.52 in 6.2 mi NNW 23.0 mph 28.8 mph N/A   Clear
3:58 PM 103.6 °F - 32.2 °F 8% 29.52 in 6.2 mi North 23.0 mph - N/A   Clear
4:58 PM 101.7 °F - 34.2 °F 10% 29.50 in 6.2 mi North 21.9 mph 27.6 mph N/A   Clear
5:58 PM 99.1 °F - 36.5 °F 11% 29.49 in 6.2 mi North 17.3 mph - N/A   Clear
6:58 PM 95.9 °F - 43.5 °F 16% 29.50 in 6.2 mi North 13.8 mph - N/A   Clear
7:58 PM 92.3 °F - 45.3 °F 20% 29.52 in 6.2 mi North 9.2 mph - N/A   Clear
8:58 PM 88.2 °F - 45.3 °F 23% 29.53 in 5.6 mi NW 3.5 mph - N/A   Haze
9:58 PM 84.9 °F - 45.0 °F 25% 29.53 in 6.2 mi WSW 6.9 mph - N/A   Clear
10:58 PM 82.9 °F - 46.2 °F 28% 29.52 in 6.2 mi WSW 9.2 mph - N/A   Clear
11:58 PM 80.8 °F - 50.4 °F 35% 29.50 in 6.2 mi WSW 8.1 mph - N/A   Clear